Tracking 28888 objects as of 23-May-2024
HD Live streaming from Space Station
objects crossing your sky now

STARLINK-3680

Track STARLINK-3680 now!
10-day predictions
STARLINK-3680 is classified as:


NORAD ID: 51969
Int'l Code: 2022-025P
Perigee: 553.4 km
Apogee: 555.3 km
Inclination: 53.1 °
Period: 95.6 minutes
Semi major axis: 6925 km
RCS: Unknown
Launch date: March 9, 2022
Source: United States (US)
Launch site: AIR FORCE EASTERN TEST RANGE (AFETR)
Your satellite tracking list
Your tracking list is empty




NASA's NSSDC Master Catalog

Two Line Element Set (TLE):
1 51969U 22025P   24143.87220304 -.00001929  00000-0 -11066-3 0  9991
2 51969  53.0536  90.7114 0001371 101.5928 258.5215 15.06396081122129
Source of the keplerian elements: AFSPC